[[{"header":{"parameterUnit":"m.s-1","parameterCategory":1,"la1":30.2991,"la2":30.254,"lo1":-89.0895,"lo2":-89.0444,"dy":0.0017,"dx":0.0017,"nx":28,"ny":28,"refTime":"2024-03-31T09:00:00:Z","depth":0,"parameterNumber":2,"parameterNumberName":"U-component_of_WINDS"},"data":[0,0,0,0,0,0,0,0,0,0,0,0,0,0,0,0,0,0,0,0,0,0,0,0,0,0,0,0,0,0,0,0,0,0,0,0,0,0,0,0,0,0,0,0,0,0,0,0,0,0,0,0,0,0,0,0,0,0,-0.427,-0.427,0,-0.4225,-0.4225,-0.4224,-0.4209,-0.421,-0.421,-0.421,-0.4164,-0.4163,-0.4161,0,0,0,0,0,0,0,0,0,0,0,0,0,-0.4345,-0.4344,-0.427,-0.427,-0.4269,-0.4225,-0.4225,-0.4224,-0.4209,-0.421,-0.421,-0.421,-0.4164,-0.4163,-0.4161,0,0,0,0,0,0,0,0,0,0,0,0,0,-0.4308,-0.4343,-0.427,-0.4257,-0.4255,-0.4225,-0.4225,-0.4224,-0.4209,-0.421,-0.421,-0.421,-0.4165,-0.4163,-0.4161,-0.4142,0,0,-0.4154,-0.4153,0,0,0,0,0,0,0,0,-0.431,-0.4305,-0.4259,-0.4257,-0.4256,-0.4223,-0.4234,-0.4196,-0.4209,-0.4227,-0.421,-0.421,-0.4183,-0.418,-0.4171,-0.414,-0.4138,-0.4154,-0.4153,-0.4152,-0.4151,0,0,0,0,0,0,0,-0.4312,-0.4307,-0.4252,-0.4259,-0.4256,-0.4253,-0.4248,-0.4227,-0.4204,-0.4225,-0.4224,-0.4219,-0.4182,-0.4173,-0.417,-0.4137,-0.4154,-0.4152,-0.4151,-0.415,-0.409,-0.4089,0,0,0,0,0,0,-0.4317,-0.4309,-0.4254,-0.4251,-0.4284,-0.4252,-0.4246,-0.4233,-0.4204,-0.42,-0.4219,-0.4218,-0.4176,-0.4172,-0.4168,-0.4144,-0.4152,-0.415,-0.4149,-0.409,-0.409,-0.4089,0,0,0,0,0,0,-0.4319,-0.4312,-0.4256,-0.428,-0.4272,-0.425,-0.4236,-0.4232,-0.4222,-0.4199,-0.4195,-0.4213,-0.4176,-0.4171,-0.4149,-0.4143,-0.4149,-0.4147,-0.409,-0.409,-0.4089,-0.4097,0,0,0,0,0,0,-0.4321,-0.4313,-0.4305,-0.428,-0.4271,-0.4237,-0.4235,-0.4231,-0.4219,-0.4218,-0.4193,-0.4189,-0.4176,-0.4152,-0.4147,-0.414,-0.4145,-0.4091,-0.409,-0.409,-0.4097,-0.4097,-0.4097,0,0,0,0,0,-0.4324,-0.4309,-0.4305,-0.4298,-0.4261,-0.4237,-0.4232,-0.4217,-0.4218,-0.4211,-0.4196,-0.419,-0.4144,-0.415,-0.4144,-0.4136,-0.4091,-0.409,-0.409,-0.4097,-0.4097,-0.4097,0,0,0,0,0,0,-0.4334,-0.4305,-0.43,-0.4277,-0.4259,-0.4234,-0.4224,-0.4217,-0.4199,-0.4199,-0.4182,-0.4177,-0.4156,-0.4144,-0.4151,-0.4117,-0.4117,-0.4115,-0.4126,-0.4125,-0.4125,-0.4128,-0.4144,0,0,0,0,0,-0.4333,-0.4316,-0.4292,-0.4273,-0.4265,-0.4246,-0.4235,-0.4226,-0.4207,-0.4199,-0.4183,-0.4165,-0.4147,-0.4135,-0.4117,-0.4096,-0.409,-0.4088,-0.4087,-0.4087,-0.4086,-0.4074,-0.4073,-0.4087,-0.4087,-0.4087,0,0,-0.4332,-0.4314,-0.4304,-0.4275,-0.426,-0.4243,-0.424,-0.4221,-0.4209,-0.4197,-0.4175,-0.4162,-0.4142,-0.412,-0.411,-0.4109,-0.4081,-0.4086,-0.4086,-0.4085,-0.4074,-0.4072,-0.4071,-0.4086,-0.4086,-0.4086,0,0,-0.4321,-0.4305,-0.4289,-0.4274,-0.4253,-0.424,-0.4237,-0.4213,-0.4204,-0.4182,-0.4173,-0.4158,-0.4127,-0.4113,-0.4101,-0.4087,-0.4081,-0.4082,-0.408,-0.4069,-0.4068,-0.4067,-0.4062,-0.4061,-0.408,-0.408,-0.408,0,-0.4322,-0.4295,-0.4281,-0.4263,-0.4251,-0.424,-0.4224,-0.4211,-0.4184,-0.4176,-0.4176,-0.4138,-0.4123,-0.4099,-0.4095,-0.4086,-0.4082,-0.4084,-0.4069,-0.4068,-0.4067,-0.4062,-0.4061,-0.4081,-0.4081,-0.4081,-0.4081,0,-0.4298,-0.428,-0.4269,-0.4244,-0.4231,-0.4214,-0.4198,-0.4186,-0.4179,-0.4167,-0.4146,-0.4128,-0.4106,-0.41,-0.4092,-0.4075,-0.4075,-0.4073,-0.4073,-0.4066,-0.4062,-0.406,-0.4081,-0.4081,-0.4081,-0.4081,0,0,-0.4291,-0.4259,-0.4255,-0.4244,-0.422,-0.4206,-0.419,-0.4169,-0.416,-0.4142,-0.4128,-0.4103,-0.4101,-0.4089,-0.4079,-0.407,-0.4061,-0.4068,-0.4068,-0.4068,-0.4041,-0.4044,-0.4042,-0.4057,-0.4056,-0.4056,-0.4043,0,-0.4277,-0.4246,-0.4233,-0.4208,-0.4192,-0.4182,-0.4168,-0.4152,-0.4141,-0.4126,-0.4114,-0.4096,-0.4094,-0.4087,-0.4077,-0.4064,-0.4055,-0.4065,-0.4044,-0.4043,-0.4049,-0.4039,-0.4041,-0.403,-0.4041,-0.4041,-0.4041,0,-0.4255,-0.4238,-0.4212,-0.4191,-0.4184,-0.4171,-0.4152,-0.4138,-0.412,-0.4113,-0.4099,-0.4091,-0.4074,-0.4076,-0.4052,-0.4059,-0.405,-0.4043,-0.4042,-0.4039,-0.4041,-0.4036,-0.4026,-0.4024,-0.4038,-0.4038,-0.4038,0,-0.4253,-0.4224,-0.4204,-0.4195,-0.417,-0.4162,-0.4151,-0.4134,-0.4123,-0.4106,-0.4099,-0.4081,-0.4071,-0.4057,-0.4045,-0.4047,-0.4023,-0.4023,-0.4017,-0.4017,-0.4012,-0.4012,-0.3999,-0.4006,-0.4006,-0.4006,-0.4006,0,-0.4239,-0.4223,-0.4203,-0.4191,-0.4174,-0.416,-0.4144,-0.4133,-0.4118,-0.4104,-0.4094,-0.4082,-0.4066,-0.4052,-0.4042,-0.4024,-0.402,-0.4014,-0.4011,-0.4015,-0.4015,-0.4008,-0.4009,-0.4006,-0.4006,-0.4006,-0.4006,0,-0.4233,-0.4219,-0.4197,-0.4176,-0.417,-0.4159,-0.4141,-0.4129,-0.4118,-0.4101,-0.4097,-0.4079,-0.4062,-0.4048,-0.4026,-0.4019,-0.4001,-0.3998,-0.4007,-0.4006,-0.4,-0.4001,-0.3982,-0.3979,-0.3988,-0.3988,-0.3988,0,-0.4224,-0.4212,-0.419,-0.418,-0.417,-0.4154,-0.4143,-0.413,-0.4119,-0.4098,-0.409,-0.4072,-0.4057,-0.403,-0.4016,-0.3999,-0.3996,-0.3991,-0.3993,-0.3997,-0.3996,-0.3997,-0.3996,-0.399,-0.399,-0.399,-0.399,0,-0.4211,-0.4205,-0.4189,-0.4172,-0.4159,-0.4144,-0.4129,-0.4122,-0.4106,-0.4095,-0.4077,-0.4066,-0.4043,-0.4026,-0.4008,-0.3997,-0.3991,-0.399,-0.3987,-0.399,-0.3996,-0.3993,-0.4006,-0.399,-0.399,-0.399,-0.399,-0.399,-0.4204,-0.4193,-0.4176,-0.4159,-0.4147,-0.4134,-0.4122,-0.411,-0.4095,-0.4076,-0.4069,-0.4052,-0.4036,-0.4011,-0.4001,-0.3987,-0.3986,-0.3983,-0.3982,-0.3981,-0.3982,-0.3998,-0.3983,-0.3983,-0.3983,-0.3983,-0.3983,0,-0.419,-0.4179,-0.4164,-0.4144,-0.4131,-0.4127,-0.4111,-0.41,-0.4085,-0.407,-0.4056,-0.4037,-0.4021,-0.4006,-0.3989,-0.3981,-0.3978,-0.3977,-0.3977,-0.3975,-0.3983,-0.3987,-0.398,-0.398,-0.398,-0.398,-0.398,-0.398,-0.4182,-0.4163,-0.4156,-0.4132,-0.4121,-0.4104,-0.4095,-0.4083,-0.4072,-0.405,-0.4037,-0.4027,-0.4013,-0.3995,-0.3981,-0.3977,-0.3971,-0.3971,-0.3967,-0.3974,-0.3974,-0.3975,-0.3978,-0.397,-0.397,-0.396,-0.396,-0.396]},{"header":{"parameterUnit":"m.s-1","parameterCategory":1,"la1":30.2991,"la2":30.254,"lo1":-89.0895,"lo2":-89.0444,"dy":0.0017,"dx":0.0017,"nx":28,"ny":28,"refTime":"2024-03-31T09:00:00:Z","depth":0,"parameterNumber":3,"parameterNumberName":"V-component_of_WINDS"},"data":[0,0,0,0,0,0,0,0,0,0,0,0,0,0,0,0,0,0,0,0,0,0,0,0,0,0,0,0,0,0,0,0,0,0,0,0,0,0,0,0,0,0,0,0,0,0,0,0,0,0,0,0,0,0,0,0,0,0,4.706,4.7061,0,4.7138,4.7139,4.714,4.7103,4.7101,4.7099,4.7097,4.7171,4.7175,4.7179,0,0,0,0,0,0,0,0,0,0,0,0,0,4.6872,4.6875,4.706,4.7061,4.7062,4.7138,4.7139,4.714,4.7103,4.7101,4.7098,4.7096,4.717,4.7175,4.7179,0,0,0,0,0,0,0,0,0,0,0,0,0,4.6952,4.6876,4.7059,4.7053,4.7053,4.7138,4.7139,4.714,4.7104,4.7101,4.7098,4.7095,4.7169,4.7174,4.718,4.7275,0,0,4.7197,4.72,0,0,0,0,0,0,0,0,4.6947,4.6959,4.7053,4.7053,4.7054,4.7108,4.71,4.7185,4.7104,4.7084,4.7097,4.7094,4.7152,4.7159,4.718,4.7278,4.7281,4.7198,4.7201,4.7204,4.7205,0,0,0,0,0,0,0,4.6942,4.6955,4.709,4.7054,4.7055,4.7043,4.7052,4.7116,4.7134,4.7086,4.7083,4.7093,4.7152,4.7175,4.7182,4.7282,4.7198,4.7203,4.7206,4.7209,4.7462,4.7465,0,0,0,0,0,0,4.6937,4.6951,4.7088,4.7093,4.6992,4.7049,4.7058,4.7093,4.7133,4.7136,4.7096,4.7091,4.7166,4.7175,4.7184,4.7298,4.7204,4.7209,4.7212,4.7459,4.7463,4.7466,0,0,0,0,0,0,4.6933,4.695,4.7085,4.7021,4.7038,4.7056,4.7095,4.7096,4.7119,4.7141,4.7143,4.7116,4.7164,4.7176,4.7253,4.73,4.7212,4.7217,4.7455,4.746,4.7464,4.7527,0,0,0,0,0,0,4.6928,4.6949,4.6986,4.7023,4.7041,4.7154,4.7098,4.71,4.713,4.7125,4.7161,4.7164,4.7163,4.7245,4.7259,4.7307,4.7221,4.7451,4.7457,4.7463,4.7521,4.7534,4.7545,0,0,0,0,0,4.6922,4.6999,4.6989,4.7005,4.7089,4.7157,4.7168,4.7167,4.7134,4.7171,4.7185,4.7162,4.7293,4.7253,4.7268,4.7319,4.7448,4.7455,4.7462,4.7516,4.7531,4.7544,0,0,0,0,0,0,4.6966,4.7004,4.6992,4.7085,4.7118,4.7151,4.7198,4.7183,4.7226,4.7219,4.7214,4.7223,4.7303,4.7318,4.7273,4.7412,4.7365,4.7376,4.74,4.7415,4.7426,4.7421,4.7226,0,0,0,0,0,4.6987,4.7041,4.707,4.7149,4.7167,4.718,4.7209,4.7206,4.724,4.7253,4.7272,4.7304,4.7353,4.7384,4.743,4.7523,4.753,4.7565,4.7577,4.7586,4.7596,4.7647,4.7663,4.7491,4.7491,4.749,0,0,4.703,4.7057,4.7091,4.7159,4.7184,4.7239,4.7192,4.7251,4.7291,4.7261,4.7336,4.7351,4.7387,4.7472,4.7511,4.7487,4.7645,4.7596,4.7603,4.7608,4.7656,4.7672,4.7687,4.7496,4.7495,4.7494,0,0,4.7137,4.7163,4.7232,4.7259,4.73,4.7308,4.7324,4.7359,4.7369,4.7444,4.7423,4.747,4.7553,4.7579,4.7603,4.7721,4.7702,4.7735,4.7797,4.7846,4.786,4.7872,4.7915,4.793,4.7744,4.7745,4.7745,0,4.7184,4.7269,4.7268,4.7331,4.736,4.7338,4.7407,4.7432,4.7485,4.7505,4.7478,4.7583,4.7605,4.7697,4.7726,4.7746,4.7764,4.7732,4.7858,4.787,4.7882,4.7922,4.7938,4.7749,4.7748,4.7748,4.7747,0,4.7325,4.7384,4.7434,4.7488,4.7523,4.7588,4.7597,4.7632,4.7626,4.7636,4.7713,4.7738,4.7789,4.781,4.7803,4.7901,4.7886,4.7859,4.7811,4.7902,4.794,4.7955,4.7754,4.7753,4.7752,4.7751,0,0,4.7463,4.7517,4.7535,4.756,4.7603,4.7647,4.771,4.7762,4.7793,4.7829,4.7882,4.7953,4.7929,4.7957,4.7952,4.7996,4.8088,4.7964,4.7964,4.7987,4.8198,4.8218,4.8236,4.8075,4.8078,4.808,4.8195,0,4.7573,4.7688,4.7689,4.7793,4.7847,4.7827,4.7882,4.7913,4.7924,4.797,4.7981,4.8032,4.7996,4.8013,4.8055,4.8068,4.813,4.8059,4.8123,4.8126,4.8117,4.8256,4.8278,4.8385,4.821,4.8212,4.8214,0,4.7718,4.7762,4.7873,4.7909,4.7931,4.7981,4.8029,4.8073,4.8108,4.8113,4.8145,4.8134,4.8197,4.8147,4.8233,4.8185,4.8211,4.8221,4.8225,4.8232,4.8176,4.8267,4.8419,4.8435,4.8237,4.8235,4.8234,0,4.7808,4.7895,4.7972,4.7994,4.8038,4.8073,4.8093,4.8125,4.8156,4.8197,4.8217,4.8264,4.8289,4.8325,4.8327,4.829,4.8414,4.8364,4.842,4.842,4.8448,4.8446,4.8607,4.8463,4.8462,4.8462,4.8462,0,4.7932,4.8001,4.8014,4.8062,4.8137,4.8138,4.8212,4.8228,4.8257,4.8306,4.8289,4.8335,4.8335,4.8381,4.8383,4.8454,4.8466,4.8471,4.847,4.8473,4.8473,4.8491,4.8484,4.8466,4.8465,4.8465,4.8464,0,4.8046,4.8058,4.8141,4.8177,4.8187,4.8242,4.8271,4.8315,4.8325,4.8388,4.8402,4.8417,4.8471,4.8476,4.8538,4.8539,4.8626,4.8617,4.8615,4.8614,4.867,4.8665,4.8848,4.8873,4.8712,4.8714,4.8715,0,4.8125,4.8178,4.822,4.8253,4.8275,4.8328,4.8361,4.8363,4.8397,4.8441,4.848,4.8533,4.8575,4.8662,4.8677,4.8724,4.8717,4.8778,4.8724,4.8725,4.8719,4.8716,4.8722,4.8788,4.879,4.8792,4.8793,0,4.8265,4.8268,4.8317,4.8368,4.8408,4.8448,4.8485,4.8512,4.8518,4.8557,4.8613,4.8647,4.8711,4.8763,4.881,4.8827,4.8811,4.881,4.8825,4.8829,4.8826,4.883,4.8645,4.8806,4.8804,4.8803,4.8803,4.8802,4.8364,4.8411,4.8448,4.8503,4.8531,4.8567,4.8611,4.8627,4.8675,4.8729,4.8726,4.8789,4.8821,4.8883,4.8904,4.8951,4.8931,4.8953,4.8959,4.8965,4.8971,4.8818,4.8959,4.8959,4.8959,4.8958,4.8958,0,4.8504,4.8527,4.8578,4.8632,4.8675,4.8657,4.8697,4.8734,4.879,4.8823,4.8866,4.893,4.8981,4.9001,4.905,4.9084,4.9078,4.9097,4.9095,4.91,4.8986,4.8968,4.9101,4.9101,4.9101,4.9101,4.9101,4.9101,4.8581,4.8659,4.8667,4.8758,4.878,4.8843,4.8868,4.89,4.8926,4.9,4.9044,4.9057,4.9084,4.9135,4.9181,4.9185,4.9204,4.9227,4.9228,4.9122,4.9107,4.9094,4.9077,4.9231,4.9231,4.9338,4.9339,4.9339]}]]